This demonstration page uses our WeatherBlox Daily Observations layout. Learn more.

Left ArrowRight Arrow

38.20091, -84.87328

Hourly Observations for July 10, 2018

Temp ( °F °C ) Dew Point ( °F °C ) Humidity (%) Winds ( mph kmh ) Pressure ( in mb ) Visibility ( mi km ) Precip ( " mm )
12:53 am 00:53 Clear 75 23.9 71 21.7 88 88 WSW 3 6 30.13 1020 10 16 0.00 0.00
1:53 am 01:53 Clear 74 23.3 71 21.7 91 91 Calm 30.12 1020 10 16 0.00 0.00
2:53 am 02:53 Clear 73 22.8 70 21.1 90 90 Calm 30.11 1020 10 16 0.00 0.00
3:53 am 03:53 Clear 72 22.2 70 21.1 94 94 Calm 30.11 1020 10 16 0.00 0.00
4:53 am 04:53 Clear 72 22.2 70 21.1 94 94 Calm 30.11 1020 10 16 0.00 0.00
5:53 am 05:53 Clear 72 22.2 69 20.6 91 91 Calm 30.11 1020 10 16 0.00 0.00
6:53 am 06:53 Mostly Sunny 72 22.2 69 20.6 91 91 Calm 30.11 1020 8 13 0.00 0.00
7:53 am 07:53 Mostly Cloudy 76 24.4 72 22.2 88 88 Calm 30.13 1020 8 13 0.00 0.00
8:53 am 08:53 Sunny 79 26.1 72 22.2 79 79 W 6 9 30.13 1020 10 16 0.00 0.00
9:53 am 09:53 Mostly Sunny 82 27.8 74 23.3 77 77 VRB 3 6 30.12 1020 10 16 0.00 0.00
10:53 am 10:53 Mostly Sunny 86 30 73 22.8 65 65 VRB 3 6 30.10 1019 10 16 0.00 0.00
11:53 am 11:53 Mostly Cloudy 85 29.4 71 21.7 63 63 WNW 5 7 30.11 1020 10 16 0.00 0.00
12:53 pm 12:53 Sunny 89 31.7 70 21.1 53 53 NNW 7 11 30.09 1019 10 16 0.00 0.00
1:53 pm 13:53 Mostly Sunny 91 32.8 67 19.4 45 45 Calm 30.07 1018 10 16 0.00 0.00
2:53 pm 14:53 Mostly Sunny 90 32.2 68 20 48 48 W 5 7 30.05 1018 10 16 0.00 0.00
3:53 pm 15:53 Sunny 91 32.8 66 18.9 44 44 NW 7 11 30.03 1017 10 16 0.00 0.00
4:53 pm 16:53 Mostly Sunny 91 32.8 67 19.4 45 45 VRB 6 9 30.02 1017 10 16 0.00 0.00
5:53 pm 17:53 Sunny 91 32.8 67 19.4 45 45 VRB 5 7 30.00 1016 10 16 0.00 0.00
6:53 pm 18:53 Sunny 89 31.7 69 20.6 52 52 W 6 9 29.99 1016 10 16 0.00 0.00
7:53 pm 19:53 Sunny 87 30.6 71 21.7 59 59 Calm 29.98 1015 10 16 0.00 0.00
8:53 pm 20:53 Sunny 84 28.9 72 22.2 67 67 W 3 6 29.98 1015 10 16 0.00 0.00
9:53 pm 21:53 Clear 81 27.2 72 22.2 74 74 Calm 29.99 1016 10 16 0.00 0.00
10:53 pm 22:53 Clear 80 26.7 71 21.7 74 74 WSW 5 7 29.99 1016 10 16 0.00 0.00
11:53 pm 23:53 Clear 78 25.6 71 21.7 79 79 WSW 5 7 29.99 1016 10 16 0.00 0.00

Powered by AerisWeather